Le nostre stazioni meteo in Italia

Pubblicità
Il mio iltempo24.it
Venezia/Tessera, Italia (16105): Temperatura & dewpoint: 30.05.2020 21:00:00 - 05.06.2020 21:00:00 (CEST)Venezia/Tessera, Italia (16105): velocità del vento: 30.05.2020 21:00:00 - 05.06.2020 21:00:00 (CEST)Venezia/Tessera, Italia (16105): direzione del vento: 30.05.2020 21:00:00 - 05.06.2020 21:00:00 (CEST)Venezia/Tessera, Italia (16105): reduced air pressure: 30.05.2020 21:00:00 - 05.06.2020 21:00:00 (CEST)Venezia/Tessera, Italia (16105): visibility: 30.05.2020 21:00:00 - 05.06.2020 21:00:00 (CEST)Venezia/Tessera, Italia (16105): precipitazioni: 30.05.2020 21:00:00 - 05.06.2020 21:00:00 (CEST)
Data & Tempo tt [°C] td [°C] ff [km/h] ff [kn] dd ppp [hPa] vv [km] rr [mm]
05.06.2020 21:00:00 20,0 17,0 13 7 S - 10 -
05.06.2020 20:00:00 21,0 15,7 11 6 S 1001,4 10 -
05.06.2020 19:00:00 22,0 15,0 11 6 S - 10 -
05.06.2020 18:00:00 23,0 16,0 9 5 S - 10 -
05.06.2020 17:00:00 22,6 13,8 8 4 SSE 1000,0 10 0,0
05.06.2020 16:00:00 - - - - - - - -
05.06.2020 15:00:00 22,0 15,0 9 5 SSE - 10 -
05.06.2020 14:00:00 22,3 14,5 9 5 NNE 998,9 10 -
05.06.2020 13:00:00 22,0 14,0 13 7 NE - 10 -
05.06.2020 12:00:00 20,0 15,0 15 8 NNE - 10 -
05.06.2020 11:00:00 20,3 15,3 11 6 ONO 996,8 10 0,0
05.06.2020 10:00:00 19,0 15,0 11 6 OSO - 10 -
05.06.2020 09:00:00 18,0 16,0 15 8 O - 10 -
05.06.2020 08:00:00 17,7 15,8 16 9 OSO 995,9 10 -
05.06.2020 07:00:00 17,0 16,0 11 6 S - 10 -
05.06.2020 06:00:00 18,0 17,0 13 7 OSO - 10 -
05.06.2020 05:00:00 17,0 16,2 4 2 - 994,7 10 0,0
05.06.2020 04:00:00 18,0 17,0 22 12 OSO - 10 -
05.06.2020 03:00:00 18,0 18,0 11 6 SSO - 10 -
05.06.2020 02:00:00 18,5 16,2 15 8 S 995,1 10 -
05.06.2020 01:00:00 18,0 15,0 18 10 S - 10 -
05.06.2020 00:00:00 19,0 17,0 16 9 SSE - 6 -
04.06.2020 23:00:00 17,8 17,5 21 11 ESE 997,2 4,0 0,0
04.06.2020 22:00:00 17,0 16,0 16 9 E - 6 -
04.06.2020 21:00:00 18,0 17,0 22 12 SE - 3,0 -
04.06.2020 20:00:00 17,2 15,7 16 9 S 1000,6 4,0 -
04.06.2020 19:00:00 18,0 17,0 9 5 SSE - 7 -
04.06.2020 18:00:00 17,0 16,0 5 3 S - 3,0 -
04.06.2020 17:00:00 17,2 16,4 11 6 S 1001,6 4,0 0,0
04.06.2020 16:00:00 17,0 16,0 9 5 S - 8 -
04.06.2020 15:00:00 17,0 16,0 18 10 S - 6 -
04.06.2020 14:00:00 16,7 14,4 15 8 SSO 1003,7 9 -
04.06.2020 13:00:00 17,0 16,0 15 8 S - 6 -
04.06.2020 12:00:00 17,0 15,0 18 10 SO - 8 -
04.06.2020 11:00:00 19,1 14,4 26 14 SO 1003,7 10 0,0
04.06.2020 10:00:00 20,0 15,0 4 2 - - 10 -
04.06.2020 09:00:00 19,0 15,0 4 2 - - 10 -
04.06.2020 08:00:00 18,0 15,6 5 3 NE 1003,2 10 -
04.06.2020 07:00:00 16,0 15,0 9 5 NNE - 10 -
04.06.2020 06:00:00 16,0 14,0 8 4 NNE - 10 -
04.06.2020 05:00:00 15,7 14,5 11 6 NE 1003,3 10 0,0
04.06.2020 04:00:00 16,0 15,0 13 7 NNE - 10 -
04.06.2020 03:00:00 18,0 15,0 5 3 ENE - 10 -
04.06.2020 02:00:00 18,0 15,1 9 5 ENE 1004,5 10 -
04.06.2020 01:00:00 18,0 15,0 9 5 E - 10 -
04.06.2020 00:00:00 18,0 16,0 4 2 - - 10 -
03.06.2020 23:00:00 18,3 14,9 16 9 N 1004,9 10 0,0
03.06.2020 22:00:00 20,0 13,0 13 7 S - 10 -
03.06.2020 21:00:00 18,0 15,0 18 10 NO - 9 -
03.06.2020 20:00:00 22,0 16,7 18 10 SE 1004,4 10 -
03.06.2020 19:00:00 23,0 17,0 16 9 SSE - 10 -
03.06.2020 18:00:00 23,0 16,0 18 10 SE - 10 -
03.06.2020 17:00:00 23,3 16,6 13 7 SSE 1005,8 10 0,0
03.06.2020 16:00:00 23,0 16,0 13 7 SE - 10 -
03.06.2020 15:00:00 23,0 15,0 11 6 SSE - 10 -
03.06.2020 14:00:00 23,0 16,4 9 5 SSE 1007,7 10 -
03.06.2020 13:00:00 23,0 16,0 15 8 SE - 10 -
03.06.2020 12:00:00 22,0 16,0 16 9 ESE - 10 -
03.06.2020 11:00:00 21,8 15,6 16 9 ESE 1009,0 10 0,0
03.06.2020 10:00:00 22,0 15,0 16 9 E - 10 -
03.06.2020 09:00:00 21,0 16,0 15 8 ENE - 10 -
03.06.2020 08:00:00 19,7 16,0 9 5 NNE 1009,4 10 -
03.06.2020 07:00:00 17,0 15,0 9 5 NNE - 10 -
03.06.2020 06:00:00 19,0 17,0 8 4 SE - 10 -
03.06.2020 05:00:00 19,3 16,3 8 4 SE 1009,2 10 0,0
03.06.2020 04:00:00 20,0 17,0 9 5 SE - 10 -
03.06.2020 03:00:00 20,0 18,0 9 5 SSE - 10 -
03.06.2020 02:00:00 20,4 17,1 8 4 S 1010,7 10 -
03.06.2020 01:00:00 21,0 17,0 11 6 SSE - 10 -
03.06.2020 00:00:00 21,0 17,0 9 5 SSE - 10 -
02.06.2020 23:00:00 21,1 16,7 8 4 SSE 1011,3 - 0,0
02.06.2020 22:00:00 21,0 17,0 13 7 ESE - 10 -
02.06.2020 21:00:00 22,0 16,0 8 4 S - 10 -
02.06.2020 20:00:00 22,5 15,9 9 5 SSE 1009,9 10 -
02.06.2020 19:00:00 23,0 14,0 11 6 S - 10 -
02.06.2020 18:00:00 23,0 14,0 13 7 S - 10 -
02.06.2020 17:00:00 24,3 12,6 13 7 S 1011,1 10 0,0
02.06.2020 16:00:00 - - - - - - - -
02.06.2020 15:00:00 25,0 14,0 15 8 SSE - 10 -
02.06.2020 14:00:00 23,9 14,6 15 8 SSE 1012,8 10 -
02.06.2020 13:00:00 23,0 14,0 16 9 SE - 10 -
02.06.2020 12:00:00 23,0 13,0 13 7 SE - 10 -
02.06.2020 11:00:00 22,5 10,7 9 5 SE 1014,2 10 0,0
02.06.2020 10:00:00 22,0 13,0 5 3 - - 10 -
02.06.2020 09:00:00 20,0 13,0 5 3 E - 10 -
02.06.2020 08:00:00 17,8 13,1 11 6 NE 1014,9 10 -
02.06.2020 07:00:00 16,0 11,0 8 4 NE - 10 -
02.06.2020 06:00:00 17,0 11,0 5 3 N - 10 -
02.06.2020 05:00:00 17,2 11,0 4 2 N 1015,7 10 0,0
02.06.2020 04:00:00 17,0 10,0 4 2 O - 10 -
02.06.2020 03:00:00 18,0 11,0 5 3 O - 10 -
02.06.2020 02:00:00 17,9 10,3 11 6 ONO 1016,3 10 -
02.06.2020 01:00:00 19,0 12,0 9 5 O - 10 -
02.06.2020 00:00:00 21,0 13,0 18 10 SO - 10 -
01.06.2020 23:00:00 21,1 13,9 15 8 SSO 1016,3 10 0,0
01.06.2020 22:00:00 21,0 14,0 11 6 S - 10 -
01.06.2020 21:00:00 22,0 10,0 11 6 SSO - 10 -
01.06.2020 20:00:00 22,8 8,7 15 8 SSO 1015,8 10 -
01.06.2020 19:00:00 24,0 9,0 16 9 SO - 10 -
01.06.2020 18:00:00 25,0 8,0 9 5 S - 10 -
01.06.2020 17:00:00 25,0 8,4 9 5 S 1016,4 10 0,0
01.06.2020 16:00:00 25,0 9,0 11 6 S - 10 -
01.06.2020 15:00:00 25,0 8,0 8 4 S - 10 -
01.06.2020 14:00:00 24,3 10,1 8 4 S 1017,3 10 -
01.06.2020 13:00:00 23,0 11,0 11 6 S - 10 -
01.06.2020 12:00:00 22,0 12,0 9 5 S - 10 -
01.06.2020 11:00:00 21,6 11,1 9 5 SSE 1017,4 10 0,0
01.06.2020 10:00:00 21,0 10,0 5 3 - - 10 -
01.06.2020 09:00:00 - - - - - - - -
01.06.2020 08:00:00 18,6 11,1 8 4 ONO 1017,6 10 -
01.06.2020 07:00:00 15,0 11,0 9 5 NO - 10 -
01.06.2020 06:00:00 15,0 10,0 9 5 O - 10 -
01.06.2020 05:00:00 15,8 11,6 4 2 O 1017,2 10 0,0
01.06.2020 04:00:00 16,0 12,0 5 3 NNO - 10 -
01.06.2020 03:00:00 16,0 11,0 9 5 NO - 10 -
01.06.2020 02:00:00 17,1 11,6 8 4 NO 1017,4 10 -
01.06.2020 01:00:00 - - - - - - - -
01.06.2020 00:00:00 19,0 11,0 4 2 S - 10 -
31.05.2020 23:00:00 18,6 11,3 5 3 S 1016,2 10 0,0
31.05.2020 22:00:00 19,0 10,0 8 4 S - 10 -
31.05.2020 21:00:00 19,0 11,0 8 4 S - 10 -
31.05.2020 20:00:00 19,1 10,4 8 4 SSE 1014,8 10 -
31.05.2020 19:00:00 20,0 10,0 8 4 S - 10 -
31.05.2020 18:00:00 20,0 9,0 9 5 S - 10 -
31.05.2020 17:00:00 20,3 9,2 9 5 S 1014,9 10 0,0
31.05.2020 16:00:00 20,0 8,0 11 6 S - 10 -
31.05.2020 15:00:00 20,0 8,0 11 6 SSO - 10 -
31.05.2020 14:00:00 20,0 8,1 9 5 S 1015,9 10 -
31.05.2020 13:00:00 20,0 8,0 5 3 S - 10 -
31.05.2020 12:00:00 19,0 7,0 9 5 ESE - 10 -
31.05.2020 11:00:00 18,9 6,4 4 2 - 1017,2 10 0,0
31.05.2020 10:00:00 18,0 8,0 8 4 NE - 10 -
31.05.2020 09:00:00 17,0 7,0 11 6 E - 10 -
31.05.2020 08:00:00 17,0 6,8 21 11 E 1017,0 10 -
31.05.2020 07:00:00 17,0 8,0 18 10 E - 10 -
31.05.2020 06:00:00 17,0 7,0 21 11 E - 10 -
31.05.2020 05:00:00 16,0 8,4 13 7 NE 1016,9 10 0,0
31.05.2020 04:00:00 16,0 9,0 11 6 NNE - 10 -
31.05.2020 03:00:00 16,0 11,0 11 6 N - 10 -
31.05.2020 02:00:00 16,2 11,8 11 6 NO 1017,3 10 -
31.05.2020 01:00:00 17,0 12,0 13 7 N - 10 -
31.05.2020 00:00:00 17,0 11,0 11 6 NO - 10 -
30.05.2020 23:00:00 19,0 9,0 11 6 E - 10 -
30.05.2020 22:00:00 19,0 10,0 9 5 ESE - 10 -
30.05.2020 21:00:00 19,0 8,0 13 7 SE - 10 -

tt = Temperatura
td = dewpoint
ff = velocità del vento
dd = direzione del vento
ppp = reduced air pressure
vv = visibility
rr = precipitazioni

Stazioni seguenti

WeatherPro
AMSI
MeteoEarth